When you browse on this site, cookies collect data to enhance your experience and personalize the content and advertising you see.
Visit our Privacy Policy to learn more. By continuing to use the site, you agree to this use of cookies and data.
  • In Hungary
  • List of Countries
  • For 7 days
  • Water Temperature
  • Weather Map
  • News
  • Weather Widgets
  • user-avatar
    Login

    Hourly Weather Kaprans'ke

    Today, 3 April, Friday

    Time Temperature Precipitation Wind Pressure Humidity
    00:00 +4°C° 0 mm 2 mps 749 mmHg 60%
    01:00 +2°C° 0 mm 3 mps 749 mmHg 61%
    02:00 +2°C° 0 mm 3 mps 750 mmHg 62%
    03:00 +2°C° 0 mm 3 mps 749 mmHg 64%
    04:00 +1°C° 0 mm 3 mps 749 mmHg 65%
    05:00 +1°C° 0 mm 3 mps 749 mmHg 66%
    06:00 +3°C° 0 mm 3 mps 749 mmHg 62%
    07:00 +4°C° 0 mm 3 mps 750 mmHg 57%
    08:00 +6°C° 0 mm 4 mps 750 mmHg 52%
    09:00 +7°C° 0 mm 4 mps 750 mmHg 46%
    10:00 +9°C° 0 mm 5 mps 750 mmHg 41%
    11:00 +10°C° 0 mm 5 mps 750 mmHg 35%
    12:00 +12°C° 0 mm 5 mps 749 mmHg 34%
    13:00 +11°C° 0 mm 6 mps 749 mmHg 33%
    14:00 +13°C° 0 mm 6 mps 749 mmHg 31%
    15:00 +12°C° 0 mm 5 mps 749 mmHg 33%
    16:00 +12°C° 0 mm 5 mps 749 mmHg 35%
    17:00 +12°C° 0 mm 5 mps 749 mmHg 36%
    18:00 +10°C° 0 mm 4 mps 749 mmHg 40%
    19:00 +8°C° 0 mm 4 mps 749 mmHg 44%
    20:00 +8°C° 0 mm 3 mps 750 mmHg 49%
    21:00 +6°C° 0 mm 4 mps 750 mmHg 50%
    22:00 +6°C° 0 mm 4 mps 750 mmHg 51%
    23:00 +5°C° 0 mm 4 mps 750 mmHg 52%

    Tomorrow, 4 April, Saturday

    Time Temperature Precipitation Wind Pressure Humidity
    00:00 +5°C° 0 mm 4 mps 750 mmHg 53%
    01:00 +5°C° 0 mm 4 mps 751 mmHg 54%
    02:00 +5°C° 0 mm 4 mps 751 mmHg 56%
    03:00 +4°C° 0 mm 4 mps 751 mmHg 60%
    04:00 +3°C° 0 mm 3 mps 752 mmHg 65%
    05:00 +3°C° 0 mm 3 mps 752 mmHg 69%
    06:00 +4°C° 0 mm 3 mps 753 mmHg 67%
    07:00 +5°C° 0 mm 3 mps 753 mmHg 64%
    08:00 +8°C° 0 mm 3 mps 754 mmHg 62%
    09:00 +9°C° 0 mm 3 mps 754 mmHg 55%
    10:00 +10°C° 0 mm 4 mps 754 mmHg 48%
    11:00 +11°C° 0 mm 4 mps 754 mmHg 41%
    12:00 +12°C° 0 mm 4 mps 755 mmHg 38%
    13:00 +12°C° 0 mm 4 mps 755 mmHg 35%
    14:00 +12°C° 0 mm 5 mps 755 mmHg 33%
    15:00 +12°C° 0 mm 4 mps 755 mmHg 33%
    16:00 +11°C° 0 mm 4 mps 755 mmHg 33%
    17:00 +11°C° 0 mm 4 mps 756 mmHg 33%
    18:00 +8°C° 0 mm 4 mps 756 mmHg 38%
    19:00 +8°C° 0 mm 3 mps 757 mmHg 42%
    20:00 +7°C° 0 mm 3 mps 757 mmHg 46%
    21:00 +6°C° 0 mm 2 mps 758 mmHg 47%
    22:00 +6°C° 0 mm 2 mps 758 mmHg 49%
    23:00 +5°C° 0 mm 2 mps 758 mmHg 50%

    Day after tomorrow, 5 April, Sunday

    Time Temperature Precipitation Wind Pressure Humidity
    00:00 +5°C° 0 mm 2 mps 758 mmHg 51%
    01:00 +4°C° 0 mm 2 mps 759 mmHg 51%
    02:00 +4°C° 0 mm 2 mps 759 mmHg 52%
    03:00 +4°C° 0 mm 2 mps 759 mmHg 54%
    04:00 +3°C° 0 mm 2 mps 759 mmHg 56%
    05:00 +2°C° 0 mm 3 mps 759 mmHg 57%
    06:00 +3°C° 0 mm 4 mps 760 mmHg 55%
    07:00 +3°C° 0 mm 5 mps 760 mmHg 52%
    08:00 +4°C° 0 mm 6 mps 760 mmHg 49%
    09:00 +4°C° 0 mm 7 mps 760 mmHg 47%
    10:00 +5°C° 0 mm 8 mps 760 mmHg 44%
    11:00 +5°C° 0 mm 8 mps 761 mmHg 41%
    12:00 +5°C° 0 mm 9 mps 761 mmHg 37%
    13:00 +5°C° 0 mm 9 mps 761 mmHg 32%
    14:00 +5°C° 0 mm 9 mps 761 mmHg 28%
    15:00 +3°C° 0 mm 9 mps 762 mmHg 30%
    16:00 +3°C° 0 mm 9 mps 762 mmHg 32%
    17:00 +2°C° 0 mm 9 mps 762 mmHg 34%
    18:00 +2°C° 0 mm 7 mps 763 mmHg 37%
    19:00 +2°C° 0 mm 6 mps 764 mmHg 40%
    20:00 +1°C° 0 mm 5 mps 764 mmHg 43%
    21:00 0°C° 0 mm 5 mps 765 mmHg 44%
    22:00 0°C° 0 mm 5 mps 765 mmHg 45%
    23:00 -1°C° 0 mm 5 mps 765 mmHg 47%

    6 April, Monday

    Time Temperature Precipitation Wind Pressure Humidity
    00:00 -1°C° 0 mm 4 mps 766 mmHg 49%
    01:00 -2°C° 0 mm 4 mps 766 mmHg 52%
    02:00 -2°C° 0 mm 4 mps 766 mmHg 54%
    03:00 -2°C° 0 mm 4 mps 766 mmHg 56%
    04:00 -2°C° 0 mm 4 mps 767 mmHg 57%
    05:00 -2°C° 0 mm 4 mps 767 mmHg 58%
    06:00 -1°C° 0 mm 5 mps 767 mmHg 51%
    07:00 -1°C° 0 mm 6 mps 768 mmHg 44%
    08:00 0°C° 0 mm 7 mps 768 mmHg 37%
    09:00 +2°C° 0 mm 7 mps 768 mmHg 35%
    10:00 +3°C° 0 mm 7 mps 768 mmHg 33%
    11:00 +4°C° 0 mm 7 mps 768 mmHg 31%
    12:00 +4°C° 0 mm 6 mps 769 mmHg 30%
    13:00 +5°C° 0 mm 6 mps 769 mmHg 30%
    14:00 +7°C° 0 mm 6 mps 769 mmHg 29%
    15:00 +6°C° 0 mm 5 mps 769 mmHg 30%
    16:00 +6°C° 0 mm 5 mps 768 mmHg 31%
    17:00 +6°C° 0 mm 5 mps 768 mmHg 32%
    18:00 +5°C° 0 mm 4 mps 769 mmHg 36%
    19:00 +4°C° 0 mm 3 mps 769 mmHg 41%
    20:00 +4°C° 0 mm 2 mps 769 mmHg 45%
    21:00 +4°C° 0 mm 1 mps 769 mmHg 46%
    22:00 +4°C° 0 mm 1 mps 769 mmHg 48%
    23:00 +4°C° 0 mm 1 mps 769 mmHg 49%

    7 April, Tuesday

    Time Temperature Precipitation Wind Pressure Humidity
    00:00 +3°C° 0 mm 1 mps 769 mmHg 51%
    01:00 +3°C° 0 mm 1 mps 769 mmHg 53%
    02:00 +3°C° 0 mm 1 mps 769 mmHg 54%
    03:00 +2°C° 0 mm 2 mps 769 mmHg 57%
    04:00 +1°C° 0 mm 2 mps 769 mmHg 60%
    05:00 +1°C° 0 mm 2 mps 769 mmHg 63%
    06:00 +3°C° 0 mm 2 mps 769 mmHg 59%
    07:00 +4°C° 0 mm 3 mps 769 mmHg 55%
    08:00 +5°C° 0 mm 3 mps 769 mmHg 51%
    09:00 +8°C° 0 mm 3 mps 768 mmHg 46%
    10:00 +8°C° 0 mm 4 mps 768 mmHg 41%
    11:00 +11°C° 0 mm 4 mps 767 mmHg 36%
    12:00 +12°C° 0 mm 4 mps 767 mmHg 34%
    13:00 +12°C° 0 mm 4 mps 767 mmHg 33%
    14:00 +13°C° 0 mm 5 mps 766 mmHg 31%
    15:00 +13°C° 0 mm 5 mps 766 mmHg 33%
    16:00 +13°C° 0 mm 4 mps 765 mmHg 34%
    17:00 +13°C° 0 mm 4 mps 765 mmHg 35%
    18:00 +11°C° 0 mm 4 mps 765 mmHg 40%
    19:00 +10°C° 0 mm 4 mps 764 mmHg 44%
    20:00 +8°C° 0 mm 3 mps 764 mmHg 49%
    21:00 +8°C° 0 mm 3 mps 764 mmHg 50%
    22:00 +6°C° 0 mm 4 mps 764 mmHg 52%
    23:00 +6°C° 0 mm 4 mps 763 mmHg 53%

    8 April, Wednesday

    Time Temperature Precipitation Wind Pressure Humidity
    00:00 +6°C° 0 mm 4 mps 763 mmHg 55%
    01:00 +6°C° 0 mm 4 mps 762 mmHg 56%
    02:00 +5°C° 0 mm 5 mps 762 mmHg 58%
    03:00 +5°C° 0 mm 5 mps 761 mmHg 60%
    04:00 +5°C° 0 mm 5 mps 761 mmHg 62%
    05:00 +5°C° 0 mm 5 mps 760 mmHg 64%
    06:00 +6°C° 0 mm 5 mps 760 mmHg 61%
    07:00 +7°C° 0 mm 6 mps 760 mmHg 58%
    08:00 +9°C° 0 mm 6 mps 759 mmHg 55%
    09:00 +11°C° 0 mm 7 mps 759 mmHg 54%
    10:00 +12°C° 0 mm 7 mps 759 mmHg 53%
    11:00 +15°C° 0 mm 8 mps 758 mmHg 51%
    12:00 +16°C° 0 mm 8 mps 758 mmHg 49%
    13:00 +16°C° 0 mm 8 mps 758 mmHg 47%
    14:00 +17°C° 0 mm 8 mps 757 mmHg 45%
    15:00 +16°C° 0 mm 8 mps 757 mmHg 46%
    16:00 +16°C° 0 mm 7 mps 757 mmHg 47%
    17:00 +15°C° 0 mm 7 mps 756 mmHg 48%
    18:00 +14°C° 0 mm 6 mps 757 mmHg 51%
    19:00 +12°C° 0 mm 5 mps 757 mmHg 54%
    20:00 +10°C° 0 mm 5 mps 757 mmHg 57%
    21:00 +9°C° 0 mm 5 mps 757 mmHg 58%
    22:00 +9°C° 0 mm 5 mps 757 mmHg 59%
    23:00 +8°C° 0 mm 5 mps 757 mmHg 60%
    Show more